SCP
-0 0 0 0 0 0 0 0 -0 0 0 0 0 0 0 0 0 0 0 0 0 0 0 0 0 0 0 0 0 0 0 0 0 -0 -0 -0 -0 0 0 0 0 0 0 0 0 0 0 0 0
0 0 0 0 0 0 0 0 0 0 0 0 0 0 0 0 0 0 0 0 0 0 0 0 0 0 0 0 0 0 0 0 1 0 0 0 0 0 0 0 0 0 0 0 0 0 0 0 0
-0 0 0 0 0 0 0 -0 0 0 0 0 0 0 0 0 0 0 0 0 0 0 0 0 0 0 0 0 0 0 0 0 0 1 1 0 0 1 1 1 0 0 0 0 0 0 0 0 0
0 0 0 0 0 0 0 0 0 0 0 0 0 0 0 0 0 0 0 0 0 0 0 0 0 0 0 0 0 0 0 0 0 1 1 1 1 1 1 1 1 1 1 0 1 0 0 0 0
0 0 0 0 0 0 0 0 0 0 0 0 0 0 0 0 0 -0 -0 -0 -0 -0 -0 -0 0 0 0 0 0 0 0 0 0 0 1 1 1 1 1 1 1 1 1 1 1 0 0 0 0
0 0 0 0 0 0 0 0 0 0 0 0 0 0 0 0 0 0 0 0 0 0 0 0 0 0 0 1 1 1 0 0 1 1 1 1 1 1 1 1 1 0 0 0 0 0 0 0 0
0 0 0 0 0 0 0 0 0 0 0 0 0 0 0 0 0 0 0 0 0 0 0 0 0 0 0 1 1 1 1 1 1 1 1 1 1 1 1 1 1 1 0 0 0 0 0 0 0
0 0 0 0 0 0 0 0 0 0 0 0 0 0 0 0 0 0 0 0 0 0 0 0 0 1 0 0 0 0 1 1 1 1 1 1 1 1 1 1 1 1 1 1 0 0 0 0 0
0 0 0 0 0 0 0 0 0 0 0 0 0 0 0 0 0 0 0 0 0 0 0 0 0 0 0 1 1 0 0 0 1 1 1 1 1 1 1 1 1 1 1 1 0 0 0 0 0
0 0 0 0 0 0 0 0 0 0 0 0 0 0 0 0 0 0 0 0 0 0 0 0 0 0 0 0 0 0 0 0 0 0 1 1 1 1 1 1 1 1 1 1 0 0 0 0 0
0 0 0 0 0 0 0 0 0 0 0 0 0 0 0 0 0 0 0 0 0 0 0 0 0 0 0 0 0 0 0 0 0 0 0 1 1 1 1 1 1 1 1 1 1 0 0 0 0
0 0 0 0 0 0 0 0 0 0 0 0 0 0 0 0 0 0 0 0 0 0 0 0 0 0 0 0 0 0 0 0 0 1 1 1 1 1 1 1 1 1 1 1 1 0 0 0 0
0 0 0 0 0 0 0 0 0 0 0 0 0 0 0 0 0 0 0 0 0 0 0 0 0 0 0 0 0 0 0 0 0 0 1 1 1 1 1 1 1 1 1 1 1 0 0 0 0
0 0 0 0 0 0 0 0 0 0 0 0 0 0 0 0 0 0 0 0 0 0 0 0 0 0 0 0 0 0 0 0 0 0 0 0 1 1 1 1 1 1 1 1 1 1 0 0 0
0 0 0 0 0 0 0 0 0 0 0 0 0 0 0 0 0 0 0 0 0 0 0 0 0 0 0 0 0 0 0 0 0 0 0 0 0 0 0 1 1 2 2 1 1 0 0 0 0
0 0 0 0 0 0 0 0 0 0 0 0 0 0 0 0 0 0 0 0 0 0 0 0 0 0 0 0 0 0 0 0 0 0 0 0 0 0 0 0 1 1 2 2 1 1 1 0 0
0 0 0 0 0 0 0 0 0 0 0 0 0 0 0 0 0 0 0 0 0 0 0 0 0 0 0 -0 0 0 -0 0 0 0 0 0 0 0 0 0 0 0 1 2 1 2 1 1 1
0 0 0 0 0 0 0 0 0 0 0 0 0 0 0 0 0 0 0 0 0 0 0 0 0 0 0 -0 -0 -0 0 -0 0 0 0 0 0 0 0 0 0 0 0 0 1 1 1 1 1
0 0 0 0 0 0 0 0 0 0 0 0 0 0 0 0 0 0 0 0 0 0 0 0 0 -0 -0 -0 -0 -0 -0 -0 -0 -0 0 0 0 0 0 -0 -0 0 0 0 0 1 1 1 2
0 0 0 0 0 0 0 0 0 0 0 0 0 0 0 0 0 0 0 0 0 0 0 0 -0 -0 -0 -0 -0 -0 -0 -0 -0 0 0 -0 0 0 -0 0 -0 0 0 0 0 0 1 2 1
0 0 0 0 0 0 0 0 0 0 0 0 0 0 0 0 0 0 0 0 0 0 -0 -0 -0 -0 -0 -0 -0 -0 -0 -0 -0 0 0 0 0 0 0 -0 -0 -0 0 0 0 0 0 1 1
0 0 0 0 0 0 0 0 0 0 0 0 0 0 0 0 0 0 0 0 0 -0 -0 -0 -0 -0 -0 -0 -0 -0 -0 -0 -0 -0 -0 -0 -0 -0 -0 -0 -0 -0 -0 0 0 0 0 0 1
0 0 0 0 0 0 0 0 0 0 0 0 0 0 0 0 0 0 0 0 -0 -0 -0 -0 -0 -0 -0 -0 -0 -0 -0 -0 -0 -0 -0 -0 -0 -0 -0 -0 -0 -0 -0 0 0 0 0 0 0
0 0 0 0 0 0 0 0 0 0 0 0 0 0 0 0 0 0 0 -0 -0 -0 -0 -0 -0 -0 -0 -0 -0 -0 -0 -0 -0 0 0 0 -0 -0 -0 -0 -0 -0 -0 -0 0 0 0 0 0
0 0 0 0 0 0 0 0 0 0 0 0 0 0 0 0 0 0 0 0 0 -0 -0 -0 -0 -0 -0 -0 -0 0 0 0 0 0 0 -0 -0 -0 -0 0 0 0 0 0 0 0 0 0 0
0 0 0 0 0 0 0 0 0 0 0 0 0 0 0 0 0 0 0 0 -0 -0 -0 -0 -0 -0 -0 -0 -0 0 0 0 0 0 0 -0 -0 -0 -0 -0 0 0 0 0 0 -0 0 0 0
0 0 0 0 0 0 0 0 0 0 0 0 0 0 0 0 0 0 0 -0 -0 -0 -0 -0 -0 -0 -0 -0 0 -0 0 0 0 0 0 0 0 0 0 0 0 0 0 0 -0 -0 0 0 0
0 0 0 0 0 0 0 0 0 0 0 0 0 0 0 0 0 0 0 -0 -0 -0 -0 -0 -0 -0 -0 -0 0 0 0 0 0 0 0 0 0 0 0 0 0 0 0 0 0 0 0 0 0
0 0 0 0 0 0 0 0 0 0 0 0 0 0 0 0 0 0 0 -0 -0 -0 -0 -0 -0 -0 -0 -0 0 0 0 0 0 0 0 0 0 0 0 0 0 0 0 0 0 0 -0 0 0
0 0 0 0 0 0 0 0 0 0 0 0 0 0 0 0 0 0 0 0 0 0 0 0 0 0 0 0 0 0 0 0 0 0 0 0 0 0 0 0 0 0 0 0 0 0 0 0 0
Wind_Speed_500mb
13 10 14 5 8 10 6 9 6 10 6 12 19 17 19 14 8 6 6 15 14 17 25 28 24 20 17 14 12 12 11 11 13 14 13 9 7 5 5 5 8 10 11 11 9 9 9 8 6
9 14 8 5 10 9 11 9 6 4 9 44 32 27 20 11 17 7 10 10 17 12 13 21 21 19 16 14 12 12 11 11 13 13 12 9 8 5 5 6 8 10 9 9 9 9 8 5 6
12 12 7 8 6 3 6 6 9 9 22 11 10 23 12 6 16 8 12 16 15 8 3 17 20 17 16 13 12 10 10 12 13 13 12 11 9 8 9 9 9 9 9 8 7 7 6 6 9
15 4 9 9 3 7 8 12 8 19 25 28 21 13 15 16 8 15 12 15 15 12 10 8 11 11 12 12 11 12 12 12 15 15 15 14 12 11 11 11 10 9 9 8 8 8 7 9 11
10 7 8 5 6 9 11 10 26 14 9 13 7 7 10 19 14 21 32 24 25 22 19 11 4 7 11 12 14 15 14 14 17 18 18 17 15 15 14 13 13 12 12 10 10 9 9 11 13
6 6 10 3 9 10 10 21 37 29 31 33 26 15 11 27 5 13 14 16 14 11 10 6 8 10 13 17 20 19 18 17 17 19 21 22 22 21 19 18 18 17 15 14 14 13 13 14 16
9 7 10 5 7 10 11 21 14 12 19 21 19 10 15 29 20 15 17 16 14 13 10 3 4 8 15 22 24 24 22 20 20 21 24 26 26 25 24 23 23 22 20 18 18 16 16 18 19
5 8 7 6 2 2 11 9 12 23 15 19 13 5 14 34 24 17 17 16 15 12 7 4 6 10 15 21 25 27 27 26 25 24 26 29 32 31 30 28 28 26 25 23 22 21 19 19 21
4 8 1 7 9 5 6 8 14 22 35 42 22 32 38 39 36 25 22 17 13 11 7 6 11 14 16 18 22 26 26 30 31 30 30 33 36 37 36 34 33 32 31 30 28 26 23 22 22
7 7 15 7 5 7 2 6 6 5 9 16 45 38 37 30 16 25 36 42 31 26 23 10 10 16 18 19 22 24 28 29 32 36 37 39 38 39 40 40 39 39 38 37 36 33 29 27 26
3 9 8 9 11 12 9 5 1 7 2 9 43 43 39 36 43 47 49 49 47 42 30 31 21 15 16 20 25 28 29 33 35 37 40 43 44 46 46 47 48 47 45 45 44 41 38 34 31
5 7 3 8 9 10 8 9 4 2 5 27 46 47 45 46 46 43 42 41 38 35 34 30 29 22 22 24 30 29 35 35 36 38 39 41 50 52 55 55 54 54 53 52 51 50 45 40 38
5 5 10 8 4 7 10 6 8 9 34 46 49 45 48 46 43 38 35 34 33 32 33 33 36 34 30 34 32 35 39 38 40 40 39 46 44 51 59 62 62 61 60 61 58 57 53 50 46
14 15 24 7 9 9 8 5 9 33 44 51 45 46 43 43 41 38 35 38 41 41 41 41 41 44 44 39 36 33 33 34 32 41 44 46 49 54 56 58 66 70 69 68 65 61 60 57 53
12 11 12 8 7 13 15 5 6 51 48 51 46 45 44 42 38 41 42 41 44 45 46 48 49 47 44 43 43 41 39 37 41 42 46 52 53 54 43 63 65 66 75 74 72 67 63 63 63
5 5 6 7 8 3 13 6 15 49 52 48 43 42 43 44 44 43 42 42 44 45 46 45 46 47 48 48 49 49 47 46 41 42 47 50 52 63 53 53 56 71 75 75 77 77 76 73 71
6 6 6 13 1 4 6 6 15 44 54 45 39 36 39 41 41 41 40 40 40 40 41 43 44 47 48 47 44 45 49 49 47 43 47 55 57 58 66 60 56 57 53 79 80 85 84 83 80
4 4 7 2 8 8 7 10 20 29 47 47 40 36 35 35 35 33 34 34 34 35 38 40 43 46 49 50 50 48 47 49 54 55 55 53 57 63 63 65 69 72 59 44 76 86 87 91 87
4 5 3 5 10 4 5 0 13 27 39 38 34 31 32 30 27 30 34 35 35 36 39 45 52 57 62 67 70 67 65 61 60 62 58 60 67 65 66 68 65 70 74 75 61 61 87 96 93
10 7 4 3 11 4 1 3 12 14 14 28 33 27 24 19 21 28 35 40 43 45 48 52 55 59 65 69 72 73 74 70 65 64 67 67 66 68 73 70 69 66 71 77 79 84 66 91 95
5 7 5 5 7 9 6 11 10 10 30 29 25 24 22 16 16 24 33 42 46 51 56 61 65 66 65 67 66 68 73 74 74 73 71 67 73 73 75 80 76 72 71 75 75 72 86 76 91
9 3 8 8 5 7 0 9 6 11 12 14 25 23 20 12 14 23 32 41 47 54 60 64 69 69 67 65 64 65 69 77 80 80 77 75 72 75 75 79 82 79 73 77 78 81 70 73 88
10 7 5 4 5 4 4 2 4 16 10 12 19 21 14 10 11 19 28 36 44 53 60 65 69 69 67 65 63 64 63 64 68 73 80 82 81 79 77 76 82 84 80 76 77 80 79 82 81
16 10 14 10 5 8 19 17 9 12 13 14 18 17 11 6 10 16 24 32 42 52 61 70 67 64 63 62 59 60 63 67 71 72 74 80 84 82 78 74 78 83 82 82 80 79 82 82 84
11 13 2 5 1 12 0 7 10 4 18 24 27 22 12 3 8 17 27 36 46 54 61 62 60 60 61 61 60 60 61 63 67 69 76 85 86 85 82 77 71 78 77 79 80 80 81 83 83
12 15 11 12 8 6 4 11 8 9 33 39 30 21 12 3 4 14 19 28 37 46 52 53 56 58 60 60 62 63 63 65 65 68 74 79 81 82 80 76 69 72 69 72 79 85 85 80 77
10 9 7 10 2 2 7 7 3 8 9 23 23 18 12 5 3 6 14 23 32 41 45 49 52 57 60 60 62 65 67 66 68 67 69 71 77 76 75 71 68 68 59 68 72 80 86 87 72
10 13 7 3 8 10 8 7 9 24 24 16 19 24 19 12 9 5 11 19 29 37 43 47 52 59 61 59 62 66 66 64 64 66 66 68 70 71 67 64 59 52 58 65 64 66 74 73 68
6 4 6 7 8 8 4 10 12 27 26 26 30 33 23 15 10 5 11 20 30 38 44 49 52 58 62 62 64 68 67 62 60 61 64 64 65 65 61 58 54 51 59 62 61 59 70 68 66
9 14 13 9 10 4 6 15 8 12 28 40 39 33 24 16 8 6 12 21 30 38 45 48 54 60 63 61 63 67 65 61 62 61 59 60 59 58 55 54 47 48 57 58 53 50 56 42 43
Wind_Direction_500mb
352 350 333 345 48 59 316 275 274 309 14 31 120 110 118 80 70 164 339 359 39 147 181 184 174 178 176 172 169 165 170 176 179 182 184 179 163 136 131 131 131 127 128 129 130 127 123 121 130
351 349 6 54 74 43 298 255 240 328 90 110 87 96 52 49 61 46 357 37 85 143 190 191 185 187 178 179 184 179 178 183 187 188 195 196 178 157 164 158 154 146 141 137 136 141 135 135 141
333 360 46 85 106 127 261 243 283 6 75 197 115 53 48 59 48 22 10 75 85 86 191 204 195 191 191 191 197 192 191 191 199 199 202 207 195 189 191 187 175 167 163 157 153 159 145 151 160
354 37 66 81 305 288 253 309 290 333 38 83 90 53 68 66 50 41 17 66 66 54 40 208 206 217 214 210 211 207 205 207 214 213 212 213 211 213 212 205 198 199 198 201 197 194 176 176 185
19 50 51 71 295 274 329 10 82 50 62 34 100 101 67 72 73 57 47 39 42 28 30 46 24 291 275 257 238 223 220 224 230 226 221 221 223 225 225 221 216 217 219 221 214 204 188 190 202
60 73 54 1 305 320 331 4 68 80 101 87 80 84 50 31 124 90 79 79 80 70 68 53 351 319 295 277 269 251 235 232 235 237 232 228 228 231 231 226 223 225 228 229 221 209 199 202 217
102 80 156 227 293 17 333 359 26 39 51 33 106 96 81 38 73 118 122 124 131 137 142 163 241 267 287 293 273 262 253 244 242 243 244 240 237 236 237 235 232 230 231 234 231 222 210 211 224
80 90 136 200 251 23 330 10 34 49 17 93 124 75 49 82 96 129 133 117 125 133 153 186 250 260 272 268 265 265 261 257 249 243 245 246 243 242 242 241 239 238 239 241 237 231 221 219 229
124 66 197 200 143 205 340 57 32 75 68 74 75 87 117 113 111 110 115 113 105 94 80 304 293 311 317 299 276 265 266 271 268 260 249 243 247 248 246 244 243 242 243 244 244 237 229 224 227
99 112 212 226 180 169 99 70 16 114 89 99 88 107 111 123 119 99 83 76 75 65 55 39 282 288 307 316 305 280 272 271 274 278 271 260 251 251 254 252 247 245 243 244 245 243 235 228 228
146 171 209 250 208 187 167 151 115 105 12 197 123 114 110 112 93 86 77 69 66 59 51 43 35 342 317 311 310 312 299 285 280 278 280 280 270 261 253 252 250 247 246 246 246 244 240 235 231
329 231 258 276 226 180 182 159 129 168 52 123 129 117 108 98 92 86 78 69 62 58 55 44 27 14 339 334 309 310 293 297 288 287 280 278 282 274 267 261 257 254 250 248 249 248 247 242 236
206 279 318 280 204 227 161 181 199 153 115 127 127 116 101 95 89 82 74 67 59 48 35 23 14 12 360 346 341 320 309 299 296 296 290 289 281 289 280 271 266 261 258 255 252 251 249 245 241
314 295 300 282 224 252 182 152 155 107 134 123 121 107 101 93 84 76 65 56 47 41 33 26 10 358 350 348 338 334 325 325 301 286 289 294 290 283 282 283 273 267 262 258 255 253 254 253 247
298 316 320 254 234 205 159 121 220 127 136 112 101 99 97 89 82 69 58 47 41 35 28 20 17 14 4 356 348 341 330 316 313 306 292 282 277 272 285 277 272 275 268 263 260 257 252 253 252
15 45 325 310 135 282 129 260 95 142 134 108 105 99 91 82 75 68 59 49 39 31 25 18 13 4 4 5 360 351 344 330 315 299 295 295 293 282 281 265 275 273 273 268 262 259 256 254 253
348 214 211 315 305 133 85 164 98 149 135 118 110 99 88 82 74 67 59 49 40 32 24 16 8 4 359 356 353 351 344 340 333 323 301 294 295 293 285 281 264 264 275 272 264 259 258 259 254
261 246 226 166 331 32 145 147 62 116 123 123 119 109 97 86 73 65 57 48 38 29 20 12 5 358 355 349 346 344 342 336 333 332 327 316 307 300 299 289 277 265 269 274 274 266 261 259 258
14 268 327 317 350 64 282 118 119 116 112 118 122 113 96 84 72 55 46 40 31 21 12 5 359 356 352 349 348 349 349 343 334 329 328 322 318 315 302 297 291 278 275 268 272 282 270 264 258
236 234 260 49 354 82 235 277 81 67 83 123 124 114 108 98 68 50 39 32 25 18 11 6 1 356 352 348 346 344 340 338 337 331 326 324 321 318 316 309 302 293 284 276 268 271 280 265 264
218 180 202 169 355 19 100 311 129 72 102 110 109 109 113 99 63 43 36 28 19 15 10 4 358 354 347 343 339 335 332 331 329 327 326 323 322 321 319 314 308 298 289 282 283 274 274 280 262
199 184 127 124 113 220 232 273 171 165 132 129 134 126 125 102 61 39 29 19 13 9 4 360 355 351 347 344 340 339 336 334 333 331 327 325 322 321 319 314 310 305 296 289 281 276 267 274 272
193 140 141 119 114 62 234 251 303 131 179 175 155 149 138 104 53 38 22 11 5 0 355 353 350 347 346 344 342 339 336 333 328 326 325 327 325 323 322 317 310 306 302 297 291 281 275 266 265
129 89 44 35 77 273 198 180 220 194 181 154 174 169 158 117 43 26 9 0 358 354 352 350 350 351 349 348 348 344 341 336 331 329 327 326 326 326 323 319 312 308 303 305 301 292 280 271 264
85 95 327 321 257 237 20 183 266 162 159 167 174 175 159 114 17 2 352 351 350 350 349 349 352 354 353 350 348 345 341 337 334 333 330 330 330 328 326 320 312 310 308 306 302 298 290 277 270
185 153 165 219 208 258 323 235 285 157 165 169 168 166 159 153 8 345 344 345 346 347 349 351 353 353 353 352 349 346 343 339 336 333 331 330 330 328 326 321 313 310 308 309 299 298 291 290 271
182 187 164 107 358 94 227 287 280 142 160 163 175 173 180 191 263 296 326 338 346 350 352 355 354 353 353 352 347 348 346 342 339 336 333 331 332 330 325 323 317 309 310 308 312 299 298 291 269
153 154 89 23 194 228 260 252 234 191 195 180 188 193 194 189 195 280 323 341 352 353 354 354 354 354 352 348 346 346 345 340 337 335 337 334 330 331 328 328 320 316 318 312 318 313 294 276 272
122 164 84 129 159 190 257 250 215 203 180 181 190 199 194 197 208 275 328 344 348 348 349 352 352 352 351 348 345 343 341 339 338 336 338 336 332 332 333 332 330 326 314 319 324 331 308 283 281
166 174 156 141 219 243 151 265 331 163 159 165 185 189 187 195 226 278 322 332 338 342 347 347 345 348 350 346 343 343 340 338 337 338 337 335 334 332 330 337 338 328 324 328 335 330 329 306 277
Wind_Speed_850mb
13 10 14 5 8 10 6 9 6 10 6 12 19 17 19 14 8 6 6 15 14 17 25 28 24 20 17 14 12 12 11 11 13 14 13 9 7 5 5 5 8 10 11 11 9 9 9 8 6
9 14 8 5 10 9 11 9 6 4 9 44 32 27 20 11 17 7 10 10 17 12 13 21 21 19 16 14 12 12 11 11 13 13 12 9 8 5 5 6 8 10 9 9 9 9 8 5 6
12 12 7 8 6 3 6 6 9 9 22 11 10 23 12 6 16 8 12 16 15 8 3 17 20 17 16 13 12 10 10 12 13 13 12 11 9 8 9 9 9 9 9 8 7 7 6 6 9
15 4 9 9 3 7 8 12 8 19 25 28 21 13 15 16 8 15 12 15 15 12 10 8 11 11 12 12 11 12 12 12 15 15 15 14 12 11 11 11 10 9 9 8 8 8 7 9 11
10 7 8 5 6 9 11 10 26 14 9 13 7 7 10 19 14 21 32 24 25 22 19 11 4 7 11 12 14 15 14 14 17 18 18 17 15 15 14 13 13 12 12 10 10 9 9 11 13
6 6 10 3 9 10 10 21 37 29 31 33 26 15 11 27 5 13 14 16 14 11 10 6 8 10 13 17 20 19 18 17 17 19 21 22 22 21 19 18 18 17 15 14 14 13 13 14 16
9 7 10 5 7 10 11 21 14 12 19 21 19 10 15 29 20 15 17 16 14 13 10 3 4 8 15 22 24 24 22 20 20 21 24 26 26 25 24 23 23 22 20 18 18 16 16 18 19
5 8 7 6 2 2 11 9 12 23 15 19 13 5 14 34 24 17 17 16 15 12 7 4 6 10 15 21 25 27 27 26 25 24 26 29 32 31 30 28 28 26 25 23 22 21 19 19 21
4 8 1 7 9 5 6 8 14 22 35 42 22 32 38 39 36 25 22 17 13 11 7 6 11 14 16 18 22 26 26 30 31 30 30 33 36 37 36 34 33 32 31 30 28 26 23 22 22
7 7 15 7 5 7 2 6 6 5 9 16 45 38 37 30 16 25 36 42 31 26 23 10 10 16 18 19 22 24 28 29 32 36 37 39 38 39 40 40 39 39 38 37 36 33 29 27 26
3 9 8 9 11 12 9 5 1 7 2 9 43 43 39 36 43 47 49 49 47 42 30 31 21 15 16 20 25 28 29 33 35 37 40 43 44 46 46 47 48 47 45 45 44 41 38 34 31
5 7 3 8 9 10 8 9 4 2 5 27 46 47 45 46 46 43 42 41 38 35 34 30 29 22 22 24 30 29 35 35 36 38 39 41 50 52 55 55 54 54 53 52 51 50 45 40 38
5 5 10 8 4 7 10 6 8 9 34 46 49 45 48 46 43 38 35 34 33 32 33 33 36 34 30 34 32 35 39 38 40 40 39 46 44 51 59 62 62 61 60 61 58 57 53 50 46
14 15 24 7 9 9 8 5 9 33 44 51 45 46 43 43 41 38 35 38 41 41 41 41 41 44 44 39 36 33 33 34 32 41 44 46 49 54 56 58 66 70 69 68 65 61 60 57 53
12 11 12 8 7 13 15 5 6 51 48 51 46 45 44 42 38 41 42 41 44 45 46 48 49 47 44 43 43 41 39 37 41 42 46 52 53 54 43 63 65 66 75 74 72 67 63 63 63
5 5 6 7 8 3 13 6 15 49 52 48 43 42 43 44 44 43 42 42 44 45 46 45 46 47 48 48 49 49 47 46 41 42 47 50 52 63 53 53 56 71 75 75 77 77 76 73 71
6 6 6 13 1 4 6 6 15 44 54 45 39 36 39 41 41 41 40 40 40 40 41 43 44 47 48 47 44 45 49 49 47 43 47 55 57 58 66 60 56 57 53 79 80 85 84 83 80
4 4 7 2 8 8 7 10 20 29 47 47 40 36 35 35 35 33 34 34 34 35 38 40 43 46 49 50 50 48 47 49 54 55 55 53 57 63 63 65 69 72 59 44 76 86 87 91 87
4 5 3 5 10 4 5 0 13 27 39 38 34 31 32 30 27 30 34 35 35 36 39 45 52 57 62 67 70 67 65 61 60 62 58 60 67 65 66 68 65 70 74 75 61 61 87 96 93
10 7 4 3 11 4 1 3 12 14 14 28 33 27 24 19 21 28 35 40 43 45 48 52 55 59 65 69 72 73 74 70 65 64 67 67 66 68 73 70 69 66 71 77 79 84 66 91 95
5 7 5 5 7 9 6 11 10 10 30 29 25 24 22 16 16 24 33 42 46 51 56 61 65 66 65 67 66 68 73 74 74 73 71 67 73 73 75 80 76 72 71 75 75 72 86 76 91
9 3 8 8 5 7 0 9 6 11 12 14 25 23 20 12 14 23 32 41 47 54 60 64 69 69 67 65 64 65 69 77 80 80 77 75 72 75 75 79 82 79 73 77 78 81 70 73 88
10 7 5 4 5 4 4 2 4 16 10 12 19 21 14 10 11 19 28 36 44 53 60 65 69 69 67 65 63 64 63 64 68 73 80 82 81 79 77 76 82 84 80 76 77 80 79 82 81
16 10 14 10 5 8 19 17 9 12 13 14 18 17 11 6 10 16 24 32 42 52 61 70 67 64 63 62 59 60 63 67 71 72 74 80 84 82 78 74 78 83 82 82 80 79 82 82 84
11 13 2 5 1 12 0 7 10 4 18 24 27 22 12 3 8 17 27 36 46 54 61 62 60 60 61 61 60 60 61 63 67 69 76 85 86 85 82 77 71 78 77 79 80 80 81 83 83
12 15 11 12 8 6 4 11 8 9 33 39 30 21 12 3 4 14 19 28 37 46 52 53 56 58 60 60 62 63 63 65 65 68 74 79 81 82 80 76 69 72 69 72 79 85 85 80 77
10 9 7 10 2 2 7 7 3 8 9 23 23 18 12 5 3 6 14 23 32 41 45 49 52 57 60 60 62 65 67 66 68 67 69 71 77 76 75 71 68 68 59 68 72 80 86 87 72
10 13 7 3 8 10 8 7 9 24 24 16 19 24 19 12 9 5 11 19 29 37 43 47 52 59 61 59 62 66 66 64 64 66 66 68 70 71 67 64 59 52 58 65 64 66 74 73 68
6 4 6 7 8 8 4 10 12 27 26 26 30 33 23 15 10 5 11 20 30 38 44 49 52 58 62 62 64 68 67 62 60 61 64 64 65 65 61 58 54 51 59 62 61 59 70 68 66
9 14 13 9 10 4 6 15 8 12 28 40 39 33 24 16 8 6 12 21 30 38 45 48 54 60 63 61 63 67 65 61 62 61 59 60 59 58 55 54 47 48 57 58 53 50 56 42 43
Wind_Direction_850mb
352 350 333 345 48 59 316 275 274 309 14 31 120 110 118 80 70 164 339 359 39 147 181 184 174 178 176 172 169 165 170 176 179 182 184 179 163 136 131 131 131 127 128 129 130 127 123 121 130
351 349 6 54 74 43 298 255 240 328 90 110 87 96 52 49 61 46 357 37 85 143 190 191 185 187 178 179 184 179 178 183 187 188 195 196 178 157 164 158 154 146 141 137 136 141 135 135 141
333 360 46 85 106 127 261 243 283 6 75 197 115 53 48 59 48 22 10 75 85 86 191 204 195 191 191 191 197 192 191 191 199 199 202 207 195 189 191 187 175 167 163 157 153 159 145 151 160
354 37 66 81 305 288 253 309 290 333 38 83 90 53 68 66 50 41 17 66 66 54 40 208 206 217 214 210 211 207 205 207 214 213 212 213 211 213 212 205 198 199 198 201 197 194 176 176 185
19 50 51 71 295 274 329 10 82 50 62 34 100 101 67 72 73 57 47 39 42 28 30 46 24 291 275 257 238 223 220 224 230 226 221 221 223 225 225 221 216 217 219 221 214 204 188 190 202
60 73 54 1 305 320 331 4 68 80 101 87 80 84 50 31 124 90 79 79 80 70 68 53 351 319 295 277 269 251 235 232 235 237 232 228 228 231 231 226 223 225 228 229 221 209 199 202 217
102 80 156 227 293 17 333 359 26 39 51 33 106 96 81 38 73 118 122 124 131 137 142 163 241 267 287 293 273 262 253 244 242 243 244 240 237 236 237 235 232 230 231 234 231 222 210 211 224
80 90 136 200 251 23 330 10 34 49 17 93 124 75 49 82 96 129 133 117 125 133 153 186 250 260 272 268 265 265 261 257 249 243 245 246 243 242 242 241 239 238 239 241 237 231 221 219 229
124 66 197 200 143 205 340 57 32 75 68 74 75 87 117 113 111 110 115 113 105 94 80 304 293 311 317 299 276 265 266 271 268 260 249 243 247 248 246 244 243 242 243 244 244 237 229 224 227
99 112 212 226 180 169 99 70 16 114 89 99 88 107 111 123 119 99 83 76 75 65 55 39 282 288 307 316 305 280 272 271 274 278 271 260 251 251 254 252 247 245 243 244 245 243 235 228 228
146 171 209 250 208 187 167 151 115 105 12 197 123 114 110 112 93 86 77 69 66 59 51 43 35 342 317 311 310 312 299 285 280 278 280 280 270 261 253 252 250 247 246 246 246 244 240 235 231
329 231 258 276 226 180 182 159 129 168 52 123 129 117 108 98 92 86 78 69 62 58 55 44 27 14 339 334 309 310 293 297 288 287 280 278 282 274 267 261 257 254 250 248 249 248 247 242 236
206 279 318 280 204 227 161 181 199 153 115 127 127 116 101 95 89 82 74 67 59 48 35 23 14 12 360 346 341 320 309 299 296 296 290 289 281 289 280 271 266 261 258 255 252 251 249 245 241
314 295 300 282 224 252 182 152 155 107 134 123 121 107 101 93 84 76 65 56 47 41 33 26 10 358 350 348 338 334 325 325 301 286 289 294 290 283 282 283 273 267 262 258 255 253 254 253 247
298 316 320 254 234 205 159 121 220 127 136 112 101 99 97 89 82 69 58 47 41 35 28 20 17 14 4 356 348 341 330 316 313 306 292 282 277 272 285 277 272 275 268 263 260 257 252 253 252
15 45 325 310 135 282 129 260 95 142 134 108 105 99 91 82 75 68 59 49 39 31 25 18 13 4 4 5 360 351 344 330 315 299 295 295 293 282 281 265 275 273 273 268 262 259 256 254 253
348 214 211 315 305 133 85 164 98 149 135 118 110 99 88 82 74 67 59 49 40 32 24 16 8 4 359 356 353 351 344 340 333 323 301 294 295 293 285 281 264 264 275 272 264 259 258 259 254
261 246 226 166 331 32 145 147 62 116 123 123 119 109 97 86 73 65 57 48 38 29 20 12 5 358 355 349 346 344 342 336 333 332 327 316 307 300 299 289 277 265 269 274 274 266 261 259 258
14 268 327 317 350 64 282 118 119 116 112 118 122 113 96 84 72 55 46 40 31 21 12 5 359 356 352 349 348 349 349 343 334 329 328 322 318 315 302 297 291 278 275 268 272 282 270 264 258
236 234 260 49 354 82 235 277 81 67 83 123 124 114 108 98 68 50 39 32 25 18 11 6 1 356 352 348 346 344 340 338 337 331 326 324 321 318 316 309 302 293 284 276 268 271 280 265 264
218 180 202 169 355 19 100 311 129 72 102 110 109 109 113 99 63 43 36 28 19 15 10 4 358 354 347 343 339 335 332 331 329 327 326 323 322 321 319 314 308 298 289 282 283 274 274 280 262
199 184 127 124 113 220 232 273 171 165 132 129 134 126 125 102 61 39 29 19 13 9 4 360 355 351 347 344 340 339 336 334 333 331 327 325 322 321 319 314 310 305 296 289 281 276 267 274 272
193 140 141 119 114 62 234 251 303 131 179 175 155 149 138 104 53 38 22 11 5 0 355 353 350 347 346 344 342 339 336 333 328 326 325 327 325 323 322 317 310 306 302 297 291 281 275 266 265
129 89 44 35 77 273 198 180 220 194 181 154 174 169 158 117 43 26 9 0 358 354 352 350 350 351 349 348 348 344 341 336 331 329 327 326 326 326 323 319 312 308 303 305 301 292 280 271 264
85 95 327 321 257 237 20 183 266 162 159 167 174 175 159 114 17 2 352 351 350 350 349 349 352 354 353 350 348 345 341 337 334 333 330 330 330 328 326 320 312 310 308 306 302 298 290 277 270
185 153 165 219 208 258 323 235 285 157 165 169 168 166 159 153 8 345 344 345 346 347 349 351 353 353 353 352 349 346 343 339 336 333 331 330 330 328 326 321 313 310 308 309 299 298 291 290 271
182 187 164 107 358 94 227 287 280 142 160 163 175 173 180 191 263 296 326 338 346 350 352 355 354 353 353 352 347 348 346 342 339 336 333 331 332 330 325 323 317 309 310 308 312 299 298 291 269
153 154 89 23 194 228 260 252 234 191 195 180 188 193 194 189 195 280 323 341 352 353 354 354 354 354 352 348 346 346 345 340 337 335 337 334 330 331 328 328 320 316 318 312 318 313 294 276 272
122 164 84 129 159 190 257 250 215 203 180 181 190 199 194 197 208 275 328 344 348 348 349 352 352 352 351 348 345 343 341 339 338 336 338 336 332 332 333 332 330 326 314 319 324 331 308 283 281
166 174 156 141 219 243 151 265 331 163 159 165 185 189 187 195 226 278 322 332 338 342 347 347 345 348 350 346 343 343 340 338 337 338 337 335 334 332 330 337 338 328 324 328 335 330 329 306 277